Retour au catalogue

IRIDIUM 33 DEB

ActifPO
NORAD 35297·DEBRIS·🇺🇸 United States

Lancé Sep 14, 1997 depuis Baikonur Cosmodrome

Loading…

Prochains Passages (prochaines 24 heures)

TLE

FraisSource: Space-Track

Époque: Sep 14, 2026, 09:48 UTC

1 35297U 97051PM  26257.40857229  .00001134  00000-0  31149-3 0  9997
2 35297  86.3859 305.0275 0013769 313.8809  46.1256 14.46201386744090

Suivez IRIDIUM 33 DEB en temps réel avec AllMySat

Download on the App Store